Change the Weather History Date:

Friday, December 13, 2013

  Actual Average Record
Temperature  
Mean Temperature 35 °F 44 °F  
Max Temperature 49 °F 54 °F 73 °F (1926)
Min Temperature 21 °F 35 °F 0 °F (1962)
Degree Days  
Heating Degree Days 30 21  
Month to date heating degree days 264 252  
Since 1 July heating degree days 899 779  
Cooling Degree Days 0 0  
Month to date cooling degree days 1 0  
Year to date cooling degree days 1835 1949  
Moisture  
Dew Point 24 °F    
Average Humidity 62    
Maximum Humidity 88    
Minimum Humidity 36    
Precipitation  
Precipitation 0.00 in 0.20 in 4.26 in (1956)
Month to date precipitation 3.64 2.58  
Year to date precipitation 55.36 51.15  
Snow  
Snow 0.00 in - - ()
Month to date snowfall 0.0  
Since 1 July snowfall T  
Snow Depth 0.00 in    
Sea Level Pressure  
Sea Level Pressure 30.26 in    
Wind  
Wind Speed 4 mph (ESE)    
Max Wind Speed 13 mph    
Max Gust Speed 15 mph    
Visibility 10 miles    
Events      
T = Trace of Precipitation, MM = Missing Value Source: NWS Daily Summary

Daily Weather History Graph

Daily Weather History Graph

Search for Another Location

Airport or City:

Trip Planner

Search our weather history database for the weather conditions in past years. The results will help you decide how hot, cold, wet, or windy it might be!

Date:

Astronomy

Dec. 13, 2013 Rise Set
Actual Time 6:45 AM CST 4:37 PM CST
Civil Twilight 6:17 AM CST 5:05 PM CST
Nautical Twilight 5:46 AM CST 5:36 PM CST
Astronomical Twilight 5:15 AM CST 6:07 PM CST
Moon 2:14 PM CST (12/13) 3:14 AM CST (12/13)
Length of Visible Light 10h 47m
Length of Day
9h 51m
Waxing Gibbous, 88% of the Moon is Illuminated
Dec 13
Waxing Gibbous
Dec 17
Full
Dec 25
Last Quarter
Jan 1
New
Jan 7
First Quarter

Hourly Weather History & Observations

Time (CST) Temp. Windchill Dew Point Humidity Pressure Visibility Wind Dir Wind Speed Gust Speed Precip Events Conditions
12:53 AM 26.1 °F - 18.0 °F 71% 30.41 in 10.0 mi Calm Calm - N/A   Clear
1:53 AM 25.0 °F 20.7 °F 18.0 °F 75% 30.39 in 10.0 mi ENE 3.5 mph - N/A   Clear
2:53 AM 24.1 °F - 18.0 °F 77% 30.38 in 10.0 mi Calm Calm - N/A   Clear
3:53 AM 24.1 °F - 19.0 °F 81% 30.36 in 10.0 mi Calm Calm - N/A   Clear
4:53 AM 21.9 °F - 18.0 °F 85% 30.34 in 10.0 mi Calm Calm - N/A   Clear
5:53 AM 24.1 °F 17.0 °F 19.0 °F 81% 30.34 in 10.0 mi East 5.8 mph - N/A   Mostly Cloudy
6:53 AM 23.0 °F - 19.0 °F 85% 30.35 in 10.0 mi Calm Calm - N/A   Scattered Clouds
7:53 AM 30.0 °F - 23.0 °F 75% 30.37 in 10.0 mi Calm Calm - N/A   Mostly Cloudy
8:53 AM 33.1 °F - 21.9 °F 64% 30.37 in 10.0 mi Calm Calm - N/A   Mostly Cloudy
9:53 AM 37.0 °F 34.5 °F 23.0 °F 57% 30.37 in 10.0 mi East 3.5 mph - N/A   Mostly Cloudy
10:53 AM 43.0 °F 39.5 °F 23.0 °F 45% 30.32 in 10.0 mi East 5.8 mph - N/A   Mostly Cloudy
11:53 AM 46.9 °F - 23.0 °F 39% 30.29 in 10.0 mi South 4.6 mph - N/A   Mostly Cloudy
12:53 PM 48.0 °F - 23.0 °F 37% 30.23 in 10.0 mi ENE 8.1 mph - N/A   Mostly Cloudy
1:53 PM 46.9 °F - 25.0 °F 42% 30.22 in 10.0 mi ESE 6.9 mph - N/A   Overcast
2:53 PM 46.9 °F - 25.0 °F 42% 30.17 in 10.0 mi East 11.5 mph - N/A   Overcast
3:53 PM 46.9 °F - 27.0 °F 46% 30.18 in 10.0 mi SSE 5.8 mph - N/A   Overcast
4:53 PM 46.0 °F 42.5 °F 26.1 °F 46% 30.17 in 10.0 mi ESE 6.9 mph - N/A   Overcast
5:53 PM 44.1 °F 42.5 °F 26.1 °F 49% 30.17 in 10.0 mi SE 3.5 mph - N/A   Overcast
6:53 PM 43.0 °F 38.8 °F 27.0 °F 53% 30.15 in 10.0 mi ESE 6.9 mph - N/A   Overcast
7:53 PM 43.0 °F 40.3 °F 28.9 °F 58% 30.16 in 10.0 mi ESE 4.6 mph - N/A   Overcast
8:53 PM 44.1 °F 41.5 °F 28.9 °F 55% 30.13 in 10.0 mi NE 4.6 mph - N/A   Overcast
9:53 PM 43.0 °F 38.8 °F 28.9 °F 58% 30.14 in 10.0 mi ESE 6.9 mph - N/A   Overcast
10:53 PM 43.0 °F 38.8 °F 28.9 °F 58% 30.12 in 10.0 mi East 6.9 mph - N/A   Overcast
11:53 PM 44.1 °F 39.5 °F 28.9 °F 55% 30.11 in 10.0 mi SE 8.1 mph - N/A   Overcast